| time (UTC) | temp F | wind direction | speed MPH | gust MPH | rain 1hr in | rain 24hr in | rain mn in | humidity % | barometer mb |
| 20260906115548 | 73 | 20 | 0.0 | 1.0 | 0.02 | 0.01 | 0.01 | 97 | 1014.0 |
| 20260906115044 | 73 | 311 | 0.0 | 1.0 | 0.00 | 0.00 | 0.00 | 97 | 1014.1 |
| 20260906114537 | 73 | 283 | 0.0 | 1.0 | 0.00 | 0.00 | 0.00 | 97 | 1013.9 |
| 20260906114033 | 73 | 298 | 0.0 | 0.0 | 0.00 | 0.00 | 0.00 | 97 | 1014.0 |
| 20260906113532 | 73 | 282 | 0.0 | 1.0 | 0.00 | 0.00 | 0.00 | 97 | 1013.7 |
| 20260906113028 | 73 | 303 | 0.0 | 2.0 | 0.00 | 0.00 | 0.00 | 97 | 1013.9 |
| 20260906112522 | 73 | 288 | 0.0 | 1.0 | 0.00 | 0.00 | 0.00 | 97 | 1013.8 |
| 20260906112019 | 73 | 345 | 0.0 | 0.0 | 0.00 | 0.00 | 0.00 | 97 | 1013.8 |
| 20260906111518 | 73 | 297 | 0.0 | 1.0 | 0.00 | 0.00 | 0.00 | 97 | 1013.6 |
| 20260906111014 | 73 | 341 | 0.0 | 0.0 | 0.00 | 0.00 | 0.00 | 97 | 1013.8 |
| 20260906110508 | 73 | 280 | 0.0 | 0.0 | 0.00 | 0.00 | 0.00 | 97 | 1013.7 |
| 20260906110002 | 73 | 341 | 0.0 | 0.0 | 0.02 | 0.00 | 0.00 | 97 | 1013.5 |
| 20260906105458 | 73 | 308 | 0.0 | 1.0 | 0.02 | 0.00 | 0.00 | 97 | 1013.6 |
| 20260906104954 | 73 | 309 | 0.0 | 1.0 | 0.00 | 0.00 | 0.00 | 96 | 1013.3 |
| 20260906104452 | 73 | 326 | 0.0 | 2.0 | 0.00 | 0.00 | 0.00 | 96 | 1013.6 |
| 20260906103951 | 73 | 342 | 0.0 | 0.0 | 0.00 | 0.00 | 0.00 | 96 | 1013.4 |
| 20260906103449 | 73 | 323 | 0.0 | 1.0 | 0.00 | 0.00 | 0.00 | 96 | 1013.2 |
| 20260906102944 | 73 | 324 | 0.0 | 1.0 | 0.00 | 0.00 | 0.00 | 96 | 1013.1 |
| 20260906102439 | 73 | 318 | 0.0 | 1.0 | 0.00 | 0.00 | 0.00 | 96 | 1013.3 |
| 20260906101939 | 73 | 20 | 0.0 | 2.0 | 0.00 | 0.00 | 0.00 | 96 | 1013.2 |
| 20260906101435 | 73 | 282 | 0.0 | 1.0 | 0.00 | 0.00 | 0.00 | 96 | 1013.1 |
| 20260906100930 | 73 | 324 | 0.0 | 0.0 | 0.00 | 0.00 | 0.00 | 96 | 1013.1 |
| 20260906100430 | 73 | 279 | 0.0 | 1.0 | 0.00 | 0.00 | 0.00 | 96 | 1013.0 |
| 20260906095924 | 73 | 283 | 0.0 | 0.0 | 0.00 | 0.00 | 0.00 | 96 | 1013.0 |
| 20260906095420 | 73 | 35 | 0.0 | 0.0 | 0.00 | 0.00 | 0.00 | 95 | 1012.8 |
| 20260906094920 | 73 | 346 | 0.0 | 0.0 | 0.00 | 0.00 | 0.00 | 95 | 1013.0 |
| 20260906094414 | 74 | 288 | 0.0 | 0.0 | 0.00 | 0.00 | 0.00 | 95 | 1013.1 |
| 20260906093911 | 74 | 293 | 0.0 | 1.0 | 0.00 | 0.00 | 0.00 | 95 | 1012.9 |
| 20260906093407 | 74 | 288 | 0.0 | 1.0 | 0.00 | 0.00 | 0.00 | 95 | 1012.8 |
| 20260906092907 | 74 | 295 | 1.0 | 2.0 | 0.00 | 0.00 | 0.00 | 95 | 1012.8 |
| 20260906092406 | 74 | 292 | 0.0 | 1.0 | 0.00 | 0.00 | 0.00 | 95 | 1012.8 |
| 20260906091902 | 74 | 272 | 1.0 | 1.0 | 0.00 | 0.00 | 0.00 | 95 | 1012.8 |
| 20260906091358 | 74 | 256 | 0.0 | 0.0 | 0.00 | 0.00 | 0.00 | 95 | 1012.8 |
| 20260906090854 | 74 | 283 | 0.0 | 0.0 | 0.00 | 0.00 | 0.00 | 94 | 1012.7 |
| 20260906090353 | 74 | 297 | 0.0 | 1.0 | 0.00 | 0.00 | 0.00 | 94 | 1012.4 |
| 20260906085848 | 74 | 280 | 0.0 | 1.0 | 0.00 | 0.00 | 0.00 | 94 | 1012.7 |
| 20260906085347 | 74 | 287 | 0.0 | 1.0 | 0.00 | 0.00 | 0.00 | 94 | 1012.7 |
| 20260906084842 | 74 | 58 | 0.0 | 0.0 | 0.00 | 0.00 | 0.00 | 94 | 1012.7 |
| 20260906084342 | 75 | 294 | 0.0 | 1.0 | 0.00 | 0.00 | 0.00 | 93 | 1012.7 |
| 20260906083837 | 75 | 283 | 0.0 | 1.0 | 0.00 | 0.00 | 0.00 | 93 | 1012.5 |
| 20260906083332 | 75 | 328 | 0.0 | 1.0 | 0.00 | 0.00 | 0.00 | 93 | 1012.5 |
| 20260906082827 | 75 | 283 | 0.0 | 1.0 | 0.00 | 0.00 | 0.00 | 93 | 1012.7 |
| 20260906082322 | 75 | 278 | 0.0 | 2.0 | 0.00 | 0.00 | 0.00 | 92 | 1012.8 |
| 20260906081818 | 75 | 280 | 0.0 | 1.0 | 0.00 | 0.00 | 0.00 | 92 | 1012.5 |
| 20260906081314 | 75 | 301 | 0.0 | 2.0 | 0.00 | 0.00 | 0.00 | 92 | 1012.7 |
| 20260906080809 | 75 | 239 | 0.0 | 1.0 | 0.00 | 0.00 | 0.00 | 91 | 1012.5 |
| 20260906080306 | 76 | 293 | 0.0 | 1.0 | 0.00 | 0.00 | 0.00 | 91 | 1012.7 |
| 20260906075804 | 76 | 301 | 0.0 | 2.0 | 0.00 | 0.00 | 0.00 | 91 | 1012.7 |
| 20260906075306 | 76 | 335 | 0.0 | 2.0 | 0.00 | 0.00 | 0.00 | 91 | 1013.0 |
| 20260906074759 | 76 | 315 | 0.0 | 1.0 | 0.00 | 0.00 | 0.00 | 91 | 1013.0 |
| 20260906074259 | 76 | 52 | 0.0 | 1.0 | 0.00 | 0.00 | 0.00 | 91 | 1012.7 |
| 20260906073758 | 76 | 294 | 0.0 | 1.0 | 0.00 | 0.00 | 0.00 | 91 | 1012.6 |
| 20260906073253 | 76 | 316 | 1.0 | 2.0 | 0.00 | 0.00 | 0.00 | 91 | 1012.8 |
| 20260906072749 | 76 | 310 | 0.0 | 2.0 | 0.00 | 0.00 | 0.00 | 91 | 1012.8 |
| 20260906072244 | 76 | 359 | 0.0 | 1.0 | 0.00 | 0.00 | 0.00 | 91 | 1012.8 |
| 20260906071740 | 76 | 302 | 1.0 | 1.0 | 0.00 | 0.00 | 0.00 | 91 | 1013.0 |
| 20260906071240 | 77 | 309 | 0.0 | 2.0 | 0.00 | 0.00 | 0.00 | 91 | 1013.1 |
| 20260906070737 | 77 | 324 | 1.0 | 2.0 | 0.00 | 0.00 | 0.00 | 92 | 1013.0 |
| 20260906070232 | 77 | 293 | 0.0 | 2.0 | 0.00 | 0.00 | 0.00 | 92 | 1013.2 |
| 20260906065732 | 77 | 315 | 0.0 | 2.0 | 0.00 | 0.00 | 0.00 | 92 | 1013.3 |
| 20260906065227 | 77 | 344 | 1.0 | 2.0 | 0.00 | 0.00 | 0.00 | 91 | 1013.5 |
| 20260906064723 | 77 | 339 | 0.0 | 2.0 | 0.00 | 0.00 | 0.00 | 91 | 1013.5 |
| 20260906064218 | 77 | 1 | 2.0 | 2.0 | 0.00 | 0.00 | 0.00 | 91 | 1013.3 |
| 20260906063713 | 77 | 330 | 1.0 | 2.0 | 0.00 | 0.00 | 0.00 | 91 | 1013.4 |
| 20260906063209 | 77 | 339 | 2.0 | 2.0 | 0.00 | 0.00 | 0.00 | 91 | 1013.4 |
| 20260906062704 | 77 | 343 | 2.0 | 2.0 | 0.00 | 0.00 | 0.00 | 92 | 1013.4 |
| 20260906062203 | 77 | 315 | 1.0 | 1.0 | 0.00 | 0.00 | 0.00 | 91 | 1013.6 |
| 20260906061659 | 78 | 276 | 1.0 | 2.0 | 0.00 | 0.00 | 0.00 | 92 | 1013.6 |
| 20260906061155 | 78 | 305 | 0.0 | 2.0 | 0.00 | 0.00 | 0.00 | 91 | 1013.6 |
| 20260906060651 | 78 | 326 | 1.0 | 2.0 | 0.00 | 0.00 | 0.00 | 91 | 1013.6 |
| 20260906060148 | 78 | 9 | 0.0 | 2.0 | 0.00 | 0.00 | 0.00 | 92 | 1013.5 |
| 20260906055643 | 78 | 348 | 1.0 | 2.0 | 0.00 | 0.00 | 0.00 | 92 | 1013.5 |
| 20260906055139 | 78 | 299 | 0.0 | 1.0 | 0.00 | 0.00 | 0.00 | 92 | 1013.4 |
| 20260906054634 | 79 | 327 | 0.0 | 2.0 | 0.00 | 0.00 | 0.00 | 91 | 1013.5 |
| 20260906054129 | 79 | 346 | 0.0 | 1.0 | 0.00 | 0.00 | 0.00 | 91 | 1013.8 |
| 20260906053626 | 79 | 357 | 0.0 | 1.0 | 0.00 | 0.00 | 0.00 | 91 | 1013.7 |
| 20260906053126 | 80 | 1 | 1.0 | 2.0 | 0.00 | 0.00 | 0.00 | 93 | 1013.8 |
| 20260906052621 | 80 | 327 | 1.0 | 1.0 | 0.00 | 0.00 | 0.00 | 93 | 1013.5 |
| 20260906052118 | 80 | 293 | 0.0 | 1.0 | 0.00 | 0.00 | 0.00 | 94 | 1013.7 |
| 20260906051614 | 80 | 315 | 0.0 | 2.0 | 0.00 | 0.00 | 0.00 | 94 | 1013.7 |
| 20260906051108 | 81 | 318 | 0.0 | 0.0 | 0.00 | 0.00 | 0.00 | 94 | 1013.9 |
| 20260906050604 | 81 | 37 | 0.0 | 0.0 | 0.00 | 0.00 | 0.00 | 94 | 1013.7 |
| 20260906050059 | 81 | 333 | 0.0 | 1.0 | 0.00 | 0.00 | 0.00 | 94 | 1013.6 |
| 20260906045557 | 81 | 323 | 0.0 | 0.0 | 0.00 | 0.00 | 0.00 | 94 | 1013.7 |
| 20260906045053 | 81 | 294 | 0.0 | 1.0 | 0.00 | 0.00 | 0.00 | 94 | 1013.7 |
| 20260906044548 | 81 | 44 | 0.0 | 0.0 | 0.00 | 0.00 | 0.00 | 94 | 1014.0 |
| 20260906044044 | 81 | 319 | 0.0 | 0.0 | 0.00 | 0.00 | 0.00 | 94 | 1014.2 |
| 20260906043539 | 81 | 325 | 0.0 | 1.0 | 0.00 | 0.00 | 0.00 | 94 | 1013.9 |
| 20260906043036 | 81 | 313 | 0.0 | 1.0 | 0.00 | 0.00 | 0.00 | 94 | 1014.3 |
| 20260906042534 | 81 | 325 | 0.0 | 0.0 | 0.00 | 0.00 | 0.00 | 94 | 1014.2 |
| 20260906042029 | 81 | 331 | 0.0 | 0.0 | 0.00 | 0.00 | 0.00 | 94 | 1014.2 |
| 20260906041525 | 81 | 337 | 0.0 | 0.0 | 0.00 | 0.00 | 0.00 | 94 | 1014.2 |
| 20260906041025 | 81 | 319 | 0.0 | 1.0 | 0.00 | 0.00 | 0.00 | 94 | 1014.3 |
| 20260906040520 | 81 | 335 | 0.0 | 0.0 | 0.00 | 0.00 | 0.00 | 94 | 1014.3 |
| 20260906040016 | 81 | 328 | 0.0 | 0.0 | 0.00 | 0.00 | 0.00 | 94 | 1014.3 |
| 20260906035511 | 81 | 328 | 0.0 | 0.0 | 0.00 | 0.00 | 0.00 | 94 | 1014.5 |
| 20260906035007 | 81 | 325 | 1.0 | 1.0 | 0.00 | 0.00 | 0.00 | 93 | 1014.4 |
| 20260906034506 | 81 | 333 | 0.0 | 0.0 | 0.00 | 0.00 | 0.00 | 93 | 1014.3 |
| 20260906034001 | 81 | 323 | 0.0 | 0.0 | 0.00 | 0.00 | 0.00 | 93 | 1014.2 |
| 20260906033456 | 82 | 329 | 0.0 | 1.0 | 0.00 | 0.00 | 0.00 | 93 | 1014.2 |
| 20260906032952 | 82 | 338 | 2.0 | 2.0 | 0.00 | 0.00 | 0.00 | 93 | 1014.0 |
| 20260906032449 | 82 | 328 | 0.0 | 1.0 | 0.00 | 0.00 | 0.00 | 92 | 1014.1 |
| 20260906031948 | 82 | 336 | 1.0 | 1.0 | 0.00 | 0.00 | 0.00 | 92 | 1014.3 |
| 20260906031444 | 82 | 319 | 0.0 | 0.0 | 0.00 | 0.00 | 0.00 | 92 | 1014.3 |
| 20260906030939 | 82 | 335 | 0.0 | 1.0 | 0.00 | 0.00 | 0.00 | 91 | 1014.2 |
| 20260906030433 | 82 | 326 | 0.0 | 1.0 | 0.00 | 0.00 | 0.00 | 91 | 1014.1 |
| 20260906025928 | 82 | 327 | 0.0 | 1.0 | 0.00 | 0.00 | 0.00 | 91 | 1014.1 |
| 20260906025428 | 82 | 293 | 0.0 | 2.0 | 0.00 | 0.00 | 0.00 | 90 | 1014.2 |
| 20260906024927 | 83 | 47 | 0.0 | 1.0 | 0.00 | 0.00 | 0.00 | 90 | 1014.1 |
| 20260906024426 | 83 | 101 | 2.0 | 2.0 | 0.00 | 0.00 | 0.00 | 90 | 1013.9 |
| 20260906023922 | 83 | 215 | 1.0 | 6.0 | 0.00 | 0.00 | 0.00 | 91 | 1013.7 |
| 20260906023418 | 82 | 205 | 3.0 | 3.0 | 0.00 | 0.00 | 0.00 | 91 | 1013.7 |
| 20260906022918 | 83 | 259 | 1.0 | 3.0 | 0.00 | 0.00 | 0.00 | 90 | 1013.4 |
| 20260906022413 | 83 | 105 | 0.0 | 2.0 | 0.00 | 0.00 | 0.00 | 90 | 1013.3 |
| 20260906021909 | 83 | 296 | 1.0 | 4.0 | 0.00 | 0.00 | 0.00 | 90 | 1013.0 |
| 20260906021409 | 82 | 224 | 4.0 | 6.0 | 0.00 | 0.00 | 0.00 | 90 | 1013.0 |
| 20260906020903 | 82 | 238 | 2.0 | 2.0 | 0.00 | 0.00 | 0.00 | 90 | 1013.7 |
| 20260906020402 | 83 | 301 | 0.0 | 2.0 | 0.00 | 0.00 | 0.00 | 90 | 1013.9 |
| 20260906015857 | 83 | 36 | 0.0 | 2.0 | 0.00 | 0.00 | 0.00 | 90 | 1013.5 |
| 20260906015357 | 83 | 52 | 0.0 | 2.0 | 0.00 | 0.00 | 0.00 | 90 | 1013.5 |
| 20260906014857 | 83 | 57 | 0.0 | 2.0 | 0.00 | 0.00 | 0.00 | 90 | 1013.4 |
| 20260906014356 | 83 | 182 | 2.0 | 3.0 | 0.00 | 0.00 | 0.00 | 90 | 1012.9 |
| 20260906013853 | 83 | 216 | 3.0 | 6.0 | 0.00 | 0.00 | 0.00 | 89 | 1012.2 |
| 20260906013348 | 83 | 263 | 2.0 | 5.0 | 0.00 | 0.00 | 0.00 | 89 | 1012.4 |
| 20260906012843 | 83 | 224 | 0.0 | 4.0 | 0.00 | 0.00 | 0.00 | 89 | 1012.8 |
| 20260906012338 | 83 | 209 | 2.0 | 2.0 | 0.00 | 0.00 | 0.00 | 88 | 1013.1 |
| 20260906011838 | 83 | 327 | 1.0 | 3.0 | 0.00 | 0.00 | 0.00 | 88 | 1013.4 |
| 20260906011333 | 83 | 219 | 1.0 | 4.0 | 0.00 | 0.00 | 0.00 | 88 | 1013.5 |
| 20260906010829 | 83 | 226 | 3.0 | 6.0 | 0.00 | 0.00 | 0.00 | 88 | 1013.7 |
| 20260906010325 | 83 | 238 | 3.0 | 3.0 | 0.00 | 0.00 | 0.00 | 88 | 1013.7 |
| 20260906005820 | 83 | 202 | 1.0 | 4.0 | 0.00 | 0.00 | 0.00 | 88 | 1013.7 |
| 20260906005319 | 83 | 47 | 0.0 | 3.0 | 0.00 | 0.00 | 0.00 | 88 | 1013.6 |
| 20260906004818 | 83 | 182 | 3.0 | 3.0 | 0.00 | 0.00 | 0.00 | 88 | 1013.5 |
| 20260906004318 | 83 | 205 | 3.0 | 5.0 | 0.00 | 0.00 | 0.00 | 88 | 1013.5 |
| 20260906003813 | 83 | 228 | 5.0 | 5.0 | 0.00 | 0.00 | 0.00 | 88 | 1013.7 |
| 20260906003309 | 83 | 235 | 2.0 | 4.0 | 0.00 | 0.00 | 0.00 | 88 | 1013.7 |
| 20260906002804 | 83 | 214 | 3.0 | 6.0 | 0.00 | 0.00 | 0.00 | 88 | 1013.6 |
| 20260906002306 | 83 | 214 | 3.0 | 4.0 | 0.00 | 0.00 | 0.00 | 87 | 1013.8 |
| 20260906001759 | 83 | 224 | 3.0 | 4.0 | 0.00 | 0.00 | 0.00 | 88 | 1014.1 |
| 20260906001254 | 83 | 145 | 1.0 | 3.0 | 0.00 | 0.00 | 0.00 | 87 | 1014.3 |
| 20260906000750 | 83 | 225 | 2.0 | 5.0 | 0.00 | 0.00 | 0.00 | 87 | 1014.0 |
| 20260906000250 | 83 | 185 | 3.0 | 5.0 | 0.00 | 0.00 | 0.00 | 87 | 1014.1 |
| 20260905235745 | 83 | 195 | 3.0 | 5.0 | 0.00 | 0.00 | 0.00 | 86 | 1014.1 |
| 20260905235244 | 83 | 231 | 2.0 | 5.0 | 0.00 | 0.00 | 0.00 | 86 | 1013.8 |
| 20260905234740 | 84 | 266 | 1.0 | 4.0 | 0.00 | 0.00 | 0.00 | 86 | 1013.9 |
| 20260905234235 | 84 | 228 | 2.0 | 5.0 | 0.00 | 0.00 | 0.00 | 86 | 1014.0 |
| 20260905233730 | 84 | 236 | 4.0 | 11.0 | 0.00 | 0.00 | 0.00 | 86 | 1014.1 |
| 20260905233230 | 84 | 184 | 3.0 | 6.0 | 0.00 | 0.00 | 0.00 | 86 | 1014.2 |
| 20260905232724 | 84 | 227 | 3.0 | 10.0 | 0.00 | 0.00 | 0.00 | 86 | 1013.9 |
| 20260905232220 | 84 | 200 | 2.0 | 8.0 | 0.00 | 0.00 | 0.00 | 86 | 1014.2 |
| 20260905231716 | 84 | 216 | 5.0 | 6.0 | 0.00 | 0.00 | 0.00 | 86 | 1013.9 |
| 20260905231211 | 84 | 208 | 6.0 | 6.0 | 0.00 | 0.00 | 0.00 | 86 | 1013.9 |
| 20260905230708 | 84 | 240 | 3.0 | 8.0 | 0.00 | 0.00 | 0.00 | 86 | 1013.8 |
| 20260905230205 | 85 | 231 | 4.0 | 7.0 | 0.00 | 0.00 | 0.00 | 85 | 1013.8 |
| 20260905225704 | 85 | 198 | 4.0 | 4.0 | 0.00 | 0.00 | 0.00 | 84 | 1013.8 |
| 20260905225200 | 85 | 267 | 2.0 | 6.0 | 0.00 | 0.00 | 0.00 | 85 | 1013.8 |
| 20260905224659 | 85 | 230 | 1.0 | 10.0 | 0.00 | 0.00 | 0.00 | 84 | 1013.9 |
| 20260905224154 | 85 | 250 | 4.0 | 6.0 | 0.00 | 0.00 | 0.00 | 83 | 1014.0 |
| 20260905223651 | 86 | 227 | 9.0 | 9.0 | 0.00 | 0.00 | 0.00 | 84 | 1013.7 |
| 20260905223147 | 86 | 233 | 3.0 | 9.0 | 0.00 | 0.00 | 0.00 | 83 | 1013.5 |
| 20260905222642 | 86 | 222 | 7.0 | 10.0 | 0.00 | 0.00 | 0.00 | 83 | 1013.6 |
| 20260905222137 | 86 | 226 | 6.0 | 12.0 | 0.00 | 0.00 | 0.00 | 83 | 1013.4 |
| 20260905221633 | 86 | 232 | 6.0 | 6.0 | 0.00 | 0.00 | 0.00 | 82 | 1013.7 |
| 20260905221130 | 86 | 215 | 8.0 | 10.0 | 0.00 | 0.00 | 0.00 | 82 | 1013.7 |
| 20260905220625 | 86 | 226 | 6.0 | 9.0 | 0.00 | 0.00 | 0.00 | 83 | 1013.6 |
| 20260905220121 | 86 | 221 | 4.0 | 11.0 | 0.00 | 0.00 | 0.00 | 83 | 1013.6 |
| 20260905215620 | 87 | 219 | 3.0 | 11.0 | 0.00 | 0.00 | 0.00 | 82 | 1013.7 |
| 20260905215116 | 87 | 217 | 7.0 | 10.0 | 0.00 | 0.00 | 0.00 | 81 | 1013.5 |
| 20260905214612 | 87 | 229 | 6.0 | 12.0 | 0.00 | 0.00 | 0.00 | 81 | 1013.4 |
| 20260905214112 | 87 | 172 | 4.0 | 6.0 | 0.00 | 0.00 | 0.00 | 81 | 1013.3 |
| 20260905213607 | 87 | 231 | 4.0 | 9.0 | 0.00 | 0.00 | 0.00 | 81 | 1013.6 |
| 20260905213103 | 87 | 225 | 9.0 | 11.0 | 0.00 | 0.00 | 0.00 | 81 | 1013.7 |
| 20260905212602 | 87 | 206 | 3.0 | 9.0 | 0.00 | 0.00 | 0.00 | 81 | 1013.7 |
| 20260905212102 | 87 | 251 | 4.0 | 7.0 | 0.00 | 0.00 | 0.00 | 82 | 1013.6 |
| 20260905211557 | 87 | 239 | 4.0 | 10.0 | 0.00 | 0.00 | 0.00 | 81 | 1013.5 |
| 20260905211053 | 87 | 220 | 5.0 | 11.0 | 0.00 | 0.00 | 0.00 | 82 | 1013.4 |
| 20260905210548 | 87 | 238 | 5.0 | 14.0 | 0.00 | 0.00 | 0.00 | 81 | 1013.3 |
| 20260905210043 | 87 | 247 | 5.0 | 11.0 | 0.00 | 0.00 | 0.00 | 80 | 1013.5 |
| 20260905205543 | 87 | 216 | 9.0 | 11.0 | 0.00 | 0.00 | 0.00 | 81 | 1013.3 |
| 20260905205042 | 88 | 214 | 8.0 | 13.0 | 0.00 | 0.00 | 0.00 | 79 | 1013.4 |
| 20260905204537 | 87 | 217 | 7.0 | 12.0 | 0.00 | 0.00 | 0.00 | 80 | 1013.2 |
| 20260905204032 | 88 | 201 | 9.0 | 12.0 | 0.00 | 0.00 | 0.00 | 79 | 1013.1 |
| 20260905203532 | 88 | 227 | 8.0 | 13.0 | 0.00 | 0.00 | 0.00 | 78 | 1013.2 |
| 20260905203027 | 88 | 248 | 5.0 | 11.0 | 0.00 | 0.00 | 0.00 | 78 | 1013.1 |
| 20260905202523 | 88 | 213 | 8.0 | 11.0 | 0.00 | 0.00 | 0.00 | 79 | 1013.0 |
| 20260905202018 | 89 | 199 | 9.0 | 10.0 | 0.00 | 0.00 | 0.00 | 78 | 1012.9 |
| 20260905201514 | 88 | 242 | 5.0 | 12.0 | 0.00 | 0.00 | 0.00 | 80 | 1013.1 |
| 20260905201013 | 88 | 207 | 7.0 | 10.0 | 0.00 | 0.00 | 0.00 | 78 | 1013.1 |
| 20260905200509 | 88 | 227 | 8.0 | 10.0 | 0.00 | 0.00 | 0.00 | 78 | 1013.0 |
| 20260905200008 | 88 | 242 | 5.0 | 11.0 | 0.00 | 0.00 | 0.00 | 79 | 1013.0 |
| 20260905195503 | 88 | 206 | 11.0 | 13.0 | 0.00 | 0.00 | 0.00 | 78 | 1013.2 |
| 20260905194958 | 89 | 230 | 7.0 | 12.0 | 0.00 | 0.00 | 0.00 | 78 | 1013.3 |
| 20260905194458 | 89 | 228 | 5.0 | 9.0 | 0.00 | 0.00 | 0.00 | 79 | 1013.4 |
| 20260905193958 | 89 | 207 | 11.0 | 13.0 | 0.00 | 0.00 | 0.00 | 77 | 1013.4 |
| 20260905193458 | 89 | 243 | 5.0 | 10.0 | 0.00 | 0.00 | 0.00 | 79 | 1013.3 |
| 20260905192953 | 89 | 232 | 8.0 | 13.0 | 0.00 | 0.00 | 0.00 | 78 | 1013.2 |
| 20260905192448 | 89 | 236 | 4.0 | 9.0 | 0.00 | 0.00 | 0.00 | 78 | 1013.5 |
| 20260905191944 | 89 | 234 | 5.0 | 10.0 | 0.00 | 0.00 | 0.00 | 77 | 1013.6 |
| 20260905191443 | 89 | 240 | 3.0 | 11.0 | 0.00 | 0.00 | 0.00 | 78 | 1013.7 |
| 20260905190943 | 89 | 227 | 5.0 | 9.0 | 0.00 | 0.00 | 0.00 | 78 | 1013.8 |
| 20260905190441 | 89 | 217 | 3.0 | 11.0 | 0.00 | 0.00 | 0.00 | 79 | 1014.0 |
| 20260905185940 | 89 | 208 | 5.0 | 11.0 | 0.00 | 0.00 | 0.00 | 76 | 1014.1 |
| 20260905185435 | 89 | 232 | 5.0 | 10.0 | 0.00 | 0.00 | 0.00 | 77 | 1014.2 |
| 20260905184934 | 89 | 215 | 7.0 | 12.0 | 0.00 | 0.00 | 0.00 | 76 | 1014.3 |
| 20260905184428 | 89 | 234 | 11.0 | 12.0 | 0.00 | 0.00 | 0.00 | 77 | 1014.3 |
| 20260905183927 | 89 | 212 | 6.0 | 12.0 | 0.00 | 0.00 | 0.00 | 76 | 1014.4 |
| 20260905183422 | 89 | 194 | 8.0 | 10.0 | 0.00 | 0.00 | 0.00 | 76 | 1014.4 |
| 20260905182917 | 89 | 239 | 4.0 | 7.0 | 0.00 | 0.00 | 0.00 | 77 | 1014.5 |
| 20260905182416 | 89 | 239 | 5.0 | 10.0 | 0.00 | 0.00 | 0.00 | 78 | 1014.5 |
| 20260905181912 | 89 | 244 | 3.0 | 9.0 | 0.00 | 0.00 | 0.00 | 76 | 1014.7 |
| 20260905181412 | 89 | 226 | 7.0 | 10.0 | 0.00 | 0.00 | 0.00 | 78 | 1014.5 |
| 20260905180911 | 89 | 234 | 7.0 | 11.0 | 0.00 | 0.00 | 0.00 | 77 | 1014.8 |
| 20260905180406 | 89 | 240 | 5.0 | 9.0 | 0.00 | 0.00 | 0.00 | 77 | 1014.6 |
| 20260905175901 | 89 | 202 | 7.0 | 7.0 | 0.00 | 0.00 | 0.00 | 79 | 1014.6 |
| 20260905175401 | 89 | 226 | 5.0 | 9.0 | 0.00 | 0.00 | 0.00 | 78 | 1014.7 |
| 20260905174901 | 89 | 225 | 5.0 | 11.0 | 0.00 | 0.00 | 0.00 | 76 | 1014.8 |
| 20260905174357 | 89 | 222 | 10.0 | 11.0 | 0.00 | 0.00 | 0.00 | 77 | 1014.9 |
| 20260905173852 | 89 | 226 | 5.0 | 11.0 | 0.00 | 0.00 | 0.00 | 77 | 1014.9 |
| 20260905173348 | 89 | 230 | 4.0 | 10.0 | 0.00 | 0.00 | 0.00 | 77 | 1015.1 |
| 20260905172843 | 89 | 202 | 6.0 | 11.0 | 0.00 | 0.00 | 0.00 | 77 | 1015.4 |
| 20260905172341 | 89 | 223 | 3.0 | 6.0 | 0.00 | 0.00 | 0.00 | 77 | 1015.4 |
| 20260905171837 | 90 | 216 | 7.0 | 8.0 | 0.00 | 0.00 | 0.00 | 77 | 1015.3 |
| 20260905171334 | 89 | 225 | 6.0 | 10.0 | 0.00 | 0.00 | 0.00 | 77 | 1015.2 |
| 20260905170830 | 89 | 225 | 6.0 | 10.0 | 0.00 | 0.00 | 0.00 | 75 | 1015.4 |
| 20260905170326 | 90 | 220 | 7.0 | 10.0 | 0.00 | 0.00 | 0.00 | 76 | 1015.4 |
| 20260905165825 | 90 | 201 | 7.0 | 9.0 | 0.00 | 0.00 | 0.00 | 76 | 1015.5 |
| 20260905165321 | 90 | 199 | 5.0 | 8.0 | 0.00 | 0.00 | 0.00 | 74 | 1015.6 |
| 20260905164820 | 91 | 215 | 9.0 | 9.0 | 0.00 | 0.00 | 0.00 | 74 | 1015.8 |
| 20260905164315 | 91 | 228 | 5.0 | 5.0 | 0.00 | 0.00 | 0.00 | 73 | 1015.8 |
| 20260905163811 | 92 | 237 | 4.0 | 8.0 | 0.00 | 0.00 | 0.00 | 71 | 1015.8 |
| 20260905163307 | 92 | 199 | 5.0 | 8.0 | 0.00 | 0.00 | 0.00 | 70 | 1016.1 |
| 20260905162803 | 93 | 179 | 1.0 | 3.0 | 0.00 | 0.00 | 0.00 | 66 | 1016.1 |
| 20260905162257 | 93 | 24 | 0.0 | 2.0 | 0.00 | 0.00 | 0.00 | 65 | 1016.1 |
| 20260905161757 | 93 | 166 | 2.0 | 3.0 | 0.00 | 0.00 | 0.00 | 63 | 1016.4 |
| 20260905161256 | 92 | 333 | 1.0 | 2.0 | 0.00 | 0.00 | 0.00 | 68 | 1016.5 |
| 20260905160755 | 91 | 184 | 1.0 | 3.0 | 0.00 | 0.00 | 0.00 | 67 | 1016.6 |
| 20260905160249 | 91 | 307 | 1.0 | 1.0 | 0.00 | 0.00 | 0.00 | 65 | 1016.7 |
| 20260905155744 | 92 | 245 | 2.0 | 3.0 | 0.00 | 0.00 | 0.00 | 69 | 1016.6 |
| 20260905155243 | 91 | 220 | 0.0 | 3.0 | 0.00 | 0.00 | 0.00 | 66 | 1016.5 |
| 20260905154737 | 91 | 223 | 4.0 | 6.0 | 0.00 | 0.00 | 0.00 | 67 | 1016.7 |
| 20260905154233 | 91 | 91 | 2.0 | 3.0 | 0.00 | 0.00 | 0.00 | 68 | 1016.8 |
| 20260905153728 | 91 | 162 | 0.0 | 3.0 | 0.00 | 0.00 | 0.00 | 67 | 1016.8 |
| 20260905153224 | 90 | 209 | 0.0 | 3.0 | 0.00 | 0.00 | 0.00 | 71 | 1016.7 |
| 20260905152719 | 90 | 155 | 2.0 | 3.0 | 0.00 | 0.00 | 0.00 | 72 | 1016.7 |
| 20260905152213 | 90 | 244 | 2.0 | 3.0 | 0.00 | 0.00 | 0.00 | 72 | 1016.8 |
| 20260905151713 | 91 | 51 | 2.0 | 4.0 | 0.00 | 0.00 | 0.00 | 70 | 1016.6 |
| 20260905151209 | 90 | 241 | 1.0 | 2.0 | 0.00 | 0.00 | 0.00 | 72 | 1016.7 |
| 20260905150704 | 89 | 303 | 2.0 | 4.0 | 0.00 | 0.00 | 0.00 | 76 | 1016.9 |
| 20260905150202 | 89 | 168 | 1.0 | 2.0 | 0.00 | 0.00 | 0.00 | 74 | 1016.9 |
| 20260905145700 | 90 | 92 | 1.0 | 5.0 | 0.00 | 0.00 | 0.00 | 71 | 1016.8 |
| 20260905145155 | 89 | 49 | 2.0 | 2.0 | 0.00 | 0.00 | 0.00 | 72 | 1016.7 |
| 20260905144649 | 89 | 315 | 0.0 | 3.0 | 0.00 | 0.00 | 0.00 | 76 | 1016.8 |
| 20260905144148 | 89 | 357 | 0.0 | 3.0 | 0.00 | 0.00 | 0.00 | 73 | 1016.7 |
| 20260905143649 | 88 | 193 | 1.0 | 3.0 | 0.00 | 0.00 | 0.00 | 76 | 1016.7 |
| 20260905143148 | 88 | 195 | 4.0 | 5.0 | 0.00 | 0.00 | 0.00 | 75 | 1016.9 |
| 20260905142647 | 87 | 245 | 3.0 | 5.0 | 0.00 | 0.00 | 0.00 | 79 | 1016.8 |
| 20260905142147 | 87 | 228 | 4.0 | 6.0 | 0.00 | 0.00 | 0.00 | 78 | 1016.8 |
| 20260905141642 | 87 | 188 | 2.0 | 4.0 | 0.00 | 0.00 | 0.00 | 79 | 1016.9 |
| 20260905141138 | 87 | 130 | 1.0 | 2.0 | 0.00 | 0.00 | 0.00 | 79 | 1016.8 |
| 20260905140633 | 87 | 325 | 1.0 | 4.0 | 0.00 | 0.00 | 0.00 | 79 | 1016.7 |
| 20260905140133 | 87 | 78 | 4.0 | 4.0 | 0.00 | 0.00 | 0.00 | 78 | 1016.6 |
| 20260905135628 | 87 | 301 | 2.0 | 7.0 | 0.00 | 0.00 | 0.00 | 80 | 1016.8 |
| 20260905135123 | 87 | 114 | 2.0 | 3.0 | 0.00 | 0.00 | 0.00 | 79 | 1016.9 |
| 20260905134618 | 86 | 321 | 2.0 | 3.0 | 0.00 | 0.00 | 0.00 | 83 | 1016.7 |
| 20260905134117 | 85 | 132 | 1.0 | 3.0 | 0.00 | 0.00 | 0.00 | 84 | 1017.0 |
| 20260905133613 | 84 | 269 | 0.0 | 5.0 | 0.00 | 0.00 | 0.00 | 86 | 1017.0 |
| 20260905133112 | 84 | 205 | 0.0 | 2.0 | 0.00 | 0.00 | 0.00 | 87 | 1017.0 |
| 20260905132612 | 83 | 59 | 2.0 | 3.0 | 0.00 | 0.00 | 0.00 | 88 | 1016.9 |
| 20260905132107 | 83 | 40 | 2.0 | 2.0 | 0.00 | 0.00 | 0.00 | 89 | 1016.9 |
| 20260905131602 | 83 | 234 | 1.0 | 3.0 | 0.00 | 0.00 | 0.00 | 91 | 1016.9 |
| 20260905131057 | 82 | 123 | 0.0 | 1.0 | 0.00 | 0.00 | 0.00 | 91 | 1016.9 |
| 20260905130556 | 82 | 339 | 0.0 | 2.0 | 0.00 | 0.00 | 0.00 | 92 | 1017.0 |
| 20260905130051 | 81 | 71 | 3.0 | 3.0 | 0.00 | 0.00 | 0.00 | 94 | 1017.2 |
| 20260905125551 | 81 | 251 | 0.0 | 2.0 | 0.00 | 0.00 | 0.00 | 96 | 1017.0 |
| 20260905125047 | 80 | 185 | 0.0 | 2.0 | 0.00 | 0.00 | 0.00 | 97 | 1017.0 |
| 20260905124543 | 80 | 269 | 0.0 | 2.0 | 0.00 | 0.00 | 0.00 | 97 | 1016.9 |
| 20260905124039 | 80 | 324 | 0.0 | 0.0 | 0.00 | 0.00 | 0.00 | 98 | 1017.1 |
| 20260905123534 | 80 | 62 | 2.0 | 2.0 | 0.00 | 0.00 | 0.00 | 98 | 1017.0 |
| 20260905123031 | 79 | 201 | 3.0 | 3.0 | 0.00 | 0.00 | 0.00 | 98 | 1016.9 |
| 20260905122530 | 79 | 109 | 0.0 | 1.0 | 0.00 | 0.00 | 0.00 | 98 | 1016.6 |
| 20260905122025 | 79 | 218 | 0.0 | 1.0 | 0.00 | 0.00 | 0.00 | 98 | 1016.8 |
| 20260905121520 | 79 | 9 | 0.0 | 1.0 | 0.00 | 0.00 | 0.00 | 98 | 1016.9 |
| 20260905121015 | 79 | 72 | 0.0 | 3.0 | 0.00 | 0.00 | 0.00 | 98 | 1016.8 |
| 20260905120514 | 78 | 76 | 1.0 | 2.0 | 0.00 | 0.00 | 0.00 | 98 | 1016.8 |
| 20260905120010 | 78 | 333 | 0.0 | 1.0 | 0.00 | 0.00 | 0.00 | 98 | 1016.8 |